User: anonymous   Login
Location: Prairie State College
(41.5244°N, 87.6382°W)
Time: 17:56:46
(UTC-05:00)
Language:

MSX - Orbit

View from above orbital plane
View from above orbital plane
View from above satellite
View from above satellite

Ground track
Ground track

The orbit data is extracted from the following two-line orbital elements,

1 23851U 96024A   14301.79664184 0.00000150  00000-0  10579-3 0    08
2 23851  98.7666 341.8040 0007000 129.2612 230.7387 13.97991663    07
Epoch (UTC): 28 October 2014 19:07:09
Eccentricity: 0.0007000
inclination: 98.7666°
perigee height: 895 km
apogee height: 906 km
right ascension of ascending node: 341.8040°
argument of perigee: 129.2612°
revolutions per day: 13.97991663
mean anomaly at epoch: 230.7387°
orbit number at epoch: 0

The dashed part of the orbit path shows where the satellite is in the earth's shadow,  

DLR